TimeCDT,TemperatureF,Dew PointF,Humidity,Sea Level PressureIn,VisibilityMPH,Wind Direction,Wind SpeedMPH,Gust SpeedMPH,PrecipitationIn,Events,Conditions,WindDirDegrees,DateUTC
12:15 AM,51.4,24.8,35,29.98,10.0,ENE,4.6,-,N/A,,Clear,60,2014-05-03 05:15:00
12:35 AM,51.8,24.6,35,29.98,10.0,ENE,3.5,-,N/A,,Clear,70,2014-05-03 05:35:00
12:55 AM,50.0,25.7,39,29.98,10.0,Calm,Calm,-,N/A,,Clear,0,2014-05-03 05:55:00
1:15 AM,49.6,26.1,40,29.98,10.0,Calm,Calm,-,N/A,,Clear,0,2014-05-03 06:15:00
1:35 AM,50.0,26.2,40,29.98,10.0,Calm,Calm,-,N/A,,Clear,0,2014-05-03 06:35:00
1:55 AM,49.6,25.5,39,29.98,10.0,Calm,Calm,-,N/A,,Clear,0,2014-05-03 06:55:00
2:15 AM,47.8,26.8,44,29.97,10.0,Calm,Calm,-,N/A,,Clear,0,2014-05-03 07:15:00
2:35 AM,47.8,26.4,43,29.97,10.0,Calm,Calm,-,N/A,,Clear,0,2014-05-03 07:35:00
2:55 AM,45.5,30.7,56,29.97,10.0,Calm,Calm,-,N/A,,Clear,0,2014-05-03 07:55:00
3:15 AM,46.0,28.8,51,29.97,10.0,Calm,Calm,-,N/A,,Clear,0,2014-05-03 08:15:00
3:35 AM,45.0,29.1,54,29.97,10.0,Calm,Calm,-,N/A,,Clear,0,2014-05-03 08:35:00
3:55 AM,45.0,28.6,53,29.97,10.0,Calm,Calm,-,N/A,,Clear,0,2014-05-03 08:55:00
4:15 AM,45.1,28.0,51,29.97,10.0,Calm,Calm,-,N/A,,Clear,0,2014-05-03 09:15:00
4:35 AM,45.3,28.0,51,29.97,10.0,Calm,Calm,-,N/A,,Clear,0,2014-05-03 09:35:00
4:55 AM,45.1,27.7,50,29.97,10.0,Calm,Calm,-,N/A,,Clear,0,2014-05-03 09:55:00
5:15 AM,43.2,29.1,58,29.97,10.0,Calm,Calm,-,N/A,,Clear,0,2014-05-03 10:15:00
5:35 AM,42.8,29.3,59,29.98,10.0,Calm,Calm,-,N/A,,Clear,0,2014-05-03 10:35:00
5:55 AM,41.9,30.0,63,29.98,10.0,Calm,Calm,-,N/A,,Clear,0,2014-05-03 10:55:00
6:15 AM,42.8,29.8,60,29.98,10.0,Calm,Calm,-,N/A,,Clear,0,2014-05-03 11:15:00
6:35 AM,42.1,30.6,64,29.99,10.0,Calm,Calm,-,N/A,,Clear,0,2014-05-03 11:35:00
6:55 AM,41.2,30.7,66,29.99,10.0,Calm,Calm,-,N/A,,Clear,0,2014-05-03 11:55:00
7:15 AM,41.4,31.1,67,30.00,10.0,Calm,Calm,-,N/A,,Clear,0,2014-05-03 12:15:00
7:35 AM,45.7,32.0,59,30.00,10.0,Calm,Calm,-,N/A,,Clear,0,2014-05-03 12:35:00
7:55 AM,50.5,32.2,49,30.01,10.0,Calm,Calm,-,N/A,,Clear,0,2014-05-03 12:55:00
8:15 AM,54.9,32.0,42,30.02,10.0,SSW,3.5,-,N/A,,Clear,200,2014-05-03 13:15:00
8:35 AM,56.7,31.5,38,30.02,10.0,Calm,Calm,-,N/A,,Clear,0,2014-05-03 13:35:00
8:55 AM,59.5,29.3,32,30.03,10.0,SSW,3.5,-,N/A,,Clear,200,2014-05-03 13:55:00
9:15 AM,62.8,29.3,28,30.03,10.0,South,3.5,-,N/A,,Clear,190,2014-05-03 14:15:00
9:35 AM,66.4,29.1,25,30.03,10.0,South,3.5,-,N/A,,Clear,190,2014-05-03 14:35:00
9:55 AM,69.8,30.4,23,30.03,10.0,SSW,4.6,-,N/A,,Clear,200,2014-05-03 14:55:00
10:15 AM,73.9,30.7,20,30.03,10.0,South,5.8,-,N/A,,Clear,180,2014-05-03 15:15:00
10:35 AM,76.3,28.8,17,30.03,10.0,South,5.8,-,N/A,,Clear,190,2014-05-03 15:35:00
10:55 AM,79.3,26.8,15,30.02,10.0,South,6.9,-,N/A,,Clear,180,2014-05-03 15:55:00
11:15 AM,82.4,25.2,12,30.02,10.0,Calm,Calm,-,N/A,,Clear,0,2014-05-03 16:15:00
11:35 AM,82.2,25.7,13,30.02,10.0,South,6.9,-,N/A,,Clear,180,2014-05-03 16:35:00
11:55 AM,83.3,26.1,12,30.02,10.0,SSW,3.5,-,N/A,,Clear,210,2014-05-03 16:55:00
12:15 PM,85.6,27.1,12,30.02,10.0,SW,3.5,-,N/A,,Clear,230,2014-05-03 17:15:00
12:35 PM,85.6,25.9,11,30.01,10.0,Calm,Calm,-,N/A,,Clear,0,2014-05-03 17:35:00
12:55 PM,87.3,26.4,11,30.00,10.0,SSW,4.6,-,N/A,,Clear,210,2014-05-03 17:55:00
1:15 PM,88.2,26.2,11,29.99,10.0,South,4.6,-,N/A,,Clear,180,2014-05-03 18:15:00
1:35 PM,87.6,25.2,10,29.98,10.0,East,5.8,-,N/A,,Clear,90,2014-05-03 18:35:00
1:55 PM,89.1,24.8,10,29.98,10.0,Calm,Calm,-,N/A,,Clear,0,2014-05-03 18:55:00
2:15 PM,90.5,26.1,10,29.97,10.0,West,5.8,-,N/A,,Clear,260,2014-05-03 19:15:00
2:35 PM,90.5,26.2,10,29.96,10.0,SW,6.9,17.3,N/A,,Clear,230,2014-05-03 19:35:00
2:55 PM,91.4,25.2,9,29.96,10.0,South,6.9,-,N/A,,Clear,170,2014-05-03 19:55:00
3:15 PM,90.5,25.5,10,29.96,10.0,South,3.5,-,N/A,,Clear,170,2014-05-03 20:15:00
3:35 PM,92.5,25.5,9,29.95,10.0,SW,3.5,-,N/A,,Clear,220,2014-05-03 20:35:00
3:55 PM,92.8,25.9,9,29.94,10.0,South,8.1,16.1,N/A,,Clear,180,2014-05-03 20:55:00
4:15 PM,93.2,26.2,9,29.93,10.0,WSW,4.6,-,N/A,,Clear,250,2014-05-03 21:15:00
4:35 PM,93.2,26.2,9,29.92,10.0,South,11.5,17.3,N/A,,Clear,180,2014-05-03 21:35:00
4:55 PM,92.7,25.3,9,29.92,10.0,Calm,Calm,-,N/A,,Clear,0,2014-05-03 21:55:00
5:15 PM,93.7,25.9,9,29.91,10.0,SW,8.1,-,N/A,,Clear,220,2014-05-03 22:15:00
5:35 PM,93.6,25.2,9,29.91,10.0,SSE,4.6,-,N/A,,Clear,160,2014-05-03 22:35:00
5:55 PM,93.7,25.7,9,29.91,10.0,South,3.5,-,N/A,,Clear,170,2014-05-03 22:55:00
6:15 PM,94.1,25.9,9,29.91,10.0,SSW,8.1,-,N/A,,Clear,200,2014-05-03 23:15:00
6:35 PM,92.5,25.0,9,29.90,10.0,SSW,6.9,-,N/A,,Clear,210,2014-05-03 23:35:00
6:55 PM,92.5,25.5,9,29.90,10.0,SSE,6.9,-,N/A,,Clear,160,2014-05-03 23:55:00
7:15 PM,91.2,26.2,10,29.90,10.0,Calm,Calm,-,N/A,,Clear,0,2014-05-04 00:15:00
7:35 PM,90.0,25.7,10,29.90,10.0,SSE,6.9,-,N/A,,Clear,150,2014-05-04 00:35:00
7:55 PM,87.3,26.6,11,29.91,10.0,SE,5.8,-,N/A,,Clear,130,2014-05-04 00:55:00
8:15 PM,84.4,26.2,12,29.92,10.0,ESE,3.5,-,N/A,,Clear,110,2014-05-04 01:15:00
8:35 PM,81.0,26.8,14,29.93,10.0,ESE,6.9,-,N/A,,Clear,110,2014-05-04 01:35:00
8:55 PM,79.7,28.4,15,29.93,10.0,East,5.8,-,N/A,,Clear,100,2014-05-04 01:55:00
9:15 PM,79.0,28.4,16,29.93,10.0,ESE,8.1,-,N/A,,Clear,110,2014-05-04 02:15:00
9:35 PM,78.1,29.8,17,29.94,10.0,ESE,5.8,-,N/A,,Clear,110,2014-05-04 02:35:00
9:55 PM,76.1,30.0,18,29.94,10.0,ESE,6.9,-,N/A,,Clear,120,2014-05-04 02:55:00
10:15 PM,74.8,30.6,20,29.95,10.0,ESE,6.9,-,N/A,,Clear,110,2014-05-04 03:15:00
10:35 PM,73.9,31.1,21,29.96,10.0,ESE,6.9,-,N/A,,Clear,120,2014-05-04 03:35:00
10:55 PM,74.1,31.6,21,29.96,10.0,ESE,9.2,16.1,N/A,,Clear,120,2014-05-04 03:55:00
11:15 PM,74.3,32.0,21,29.96,10.0,SE,10.4,-,N/A,,Clear,130,2014-05-04 04:15:00
11:35 PM,73.0,32.2,22,29.96,10.0,SE,8.1,-,N/A,,Clear,130,2014-05-04 04:35:00
11:55 PM,72.3,32.4,23,29.96,10.0,SE,8.1,-,N/A,,Clear,130,2014-05-04 04:55:00